User: anonymous   Login
Location: Fort Wayne
(41.1310°N, 85.1290°W)
Time: 06:42:05
(UTC-04:00)
Language:

COSMOS 2406 - Orbit

View from above orbital plane
View from above orbital plane
View from above satellite
View from above satellite

Ground track
Ground track

The orbit data is extracted from the following two-line orbital elements,

1 28352U 04021A   16146.18895378 -.00000312  00000-0 -14577-3 0  9999
2 28352  71.0030 214.7459 0015151 319.2918  40.7069 14.11445207616098
Epoch (UTC): 25 May 2016 04:32:05
Eccentricity: 0.0015151
inclination: 71.0030°
perigee height: 843 km
apogee height: 865 km
right ascension of ascending node: 214.7459°
argument of perigee: 319.2918°
revolutions per day: 14.11445207
mean anomaly at epoch: 40.7069°
orbit number at epoch: 61609

The dashed part of the orbit path shows where the satellite is in the earth's shadow,  

DLR